M0TJX-1 Weather Reports


Display with metric or nautical units.
time (UTC)temp
F
wind
direction
speed
MPH
gust
MPH
rain 1hr
in
rain 24hr
in
rain mn
in
humidity
%
barometer
mb
20260507142811 57 97 3.0 6.0 0.00 0.00 0.00 67 1015.2
20260507141311 57 121 1.0 6.0 0.00 0.00 0.00 64 1015.3
20260507135811 58 250 1.0 5.0 0.00 0.00 0.00 62 1015.2
20260507134311 58 113 1.0 4.0 0.00 0.00 0.00 63 1015.2
20260507132811 58 136 2.0 7.0 0.00 0.00 0.00 61 1015.1
20260507131311 58 101 3.0 7.0 0.00 0.00 0.00 60 1015.1
20260507125811 59 121 3.0 8.0 0.00 0.00 0.00 58 1015.2
20260507124311 59 137 2.0 4.0 0.00 0.00 0.00 58 1015.2
20260507122811 59 106 3.0 6.0 0.00 0.00 0.00 61 1015.3
20260507121311 58 209 3.0 7.0 0.00 0.00 0.00 61 1015.3
20260507115811 58 123 3.0 6.0 0.00 0.00 0.00 61 1015.4
20260507114312 58 149 2.0 7.0 0.00 0.00 0.00 61 1015.6
20260507112812 59 132 3.0 8.0 0.00 0.00 0.00 60 1015.5
20260507111312 61 191 2.0 7.0 0.00 0.00 0.00 60 1015.5
20260507105812 61 105 2.0 5.0 0.00 0.00 0.00 61 1015.5
20260507104312 60 126 2.0 6.0 0.00 0.00 0.00 60 1015.8
20260507102812 58 122 2.0 8.0 0.00 0.00 0.00 66 1015.8
20260507101312 57 140 2.0 3.0 0.00 0.00 0.00 73 1015.7
20260507095812 55 159 1.0 4.0 0.00 0.00 0.00 76 1015.7
20260507094312 54 159 1.0 4.0 0.00 0.00 0.00 77 1016.0
20260507092812 53 138 2.0 5.0 0.00 0.00 0.00 79 1016.0
20260507091312 51 48 2.0 4.0 0.00 0.00 0.00 81 1015.8
20260507085812 50 129 1.0 3.0 0.00 0.00 0.00 84 1016.1
20260507084312 48 148 2.0 4.0 0.00 0.00 0.00 86 1016.1
20260507082812 47 159 1.0 5.0 0.00 0.00 0.00 87 1016.0
20260507081312 46 128 1.0 3.0 0.00 0.00 0.00 88 1015.9
20260507075812 46 109 1.0 4.0 0.00 0.00 0.00 88 1015.9
20260507074312 46 91 1.0 3.0 0.00 0.00 0.00 89 1015.9
20260507072812 45 167 1.0 3.0 0.00 0.00 0.00 89 1015.9
20260507071312 45 110 1.0 4.0 0.00 0.00 0.00 89 1015.8
20260507065812 44 50 0.0 2.0 0.00 0.00 0.00 90 1015.7
20260507064312 44 86 0.0 3.0 0.00 0.00 0.00 90 1015.5
20260507062812 44 148 1.0 2.0 0.00 0.00 0.00 90 1015.4
20260507061312 44 340 1.0 2.0 0.00 0.00 0.00 91 1015.5
20260507055812 43 11 1.0 3.0 0.00 0.00 0.00 91 1015.3
20260507054312 43 109 1.0 4.0 0.00 0.00 0.00 91 1015.3
20260507052812 43 160 1.0 6.0 0.00 0.00 0.00 91 1015.3
20260507051312 43 116 1.0 4.0 0.00 0.00 0.00 90 1015.3
20260507045812 43 129 1.0 3.0 0.00 0.00 0.00 90 1015.3
20260507044312 43 24 0.0 2.0 0.00 0.00 0.00 90 1015.2
20260507042812 43 109 1.0 5.0 0.00 0.00 0.00 90 1015.1
20260507041312 43 65 0.0 1.0 0.00 0.00 0.00 90 1015.0
20260507035812 43 355 1.0 5.0 0.00 0.00 0.00 90 1015.1
20260507034312 43 355 1.0 3.0 0.00 0.00 0.00 90 1015.1
20260507032812 43 15 1.0 4.0 0.00 0.00 0.00 90 1015.2
20260507031312 44 159 1.0 4.0 0.00 0.00 0.00 90 1015.3
20260507025812 44 26 2.0 6.0 0.00 0.00 0.00 90 1015.2
20260507024312 44 15 2.0 4.0 0.00 0.00 0.00 89 1015.2
20260507022812 44 130 2.0 6.0 0.00 0.00 0.00 89 1015.0
20260507021312 44 132 2.0 6.0 0.00 0.00 0.00 88 1015.0
20260507015812 44 22 2.0 4.0 0.00 0.00 0.00 88 1015.0
20260507014312 44 139 1.0 3.0 0.00 0.00 0.00 87 1015.0
20260507012812 45 165 2.0 4.0 0.00 0.00 0.00 87 1015.1
20260507011312 45 89 2.0 7.0 0.00 0.00 0.00 86 1015.1
20260507005812 45 75 2.0 4.0 0.00 0.00 0.00 86 1015.0
20260507004312 45 151 1.0 4.0 0.00 0.00 0.00 85 1015.1
20260507002812 45 136 2.0 4.0 0.00 0.00 0.00 85 1015.2
20260507001312 46 49 1.0 5.0 0.00 0.00 0.00 84 1015.3
20260506235812 46 136 1.0 4.0 0.00 0.00 0.00 83 1015.4
20260506234312 46 355 2.0 10.0 0.00 0.00 0.00 82 1015.3
20260506232812 46 128 1.0 5.0 0.00 0.00 0.00 81 1015.3
20260506231312 47 323 2.0 4.0 0.00 0.00 0.00 80 1015.2
20260506225812 47 37 1.0 5.0 0.00 0.00 0.00 79 1015.3
20260506224312 48 175 2.0 5.0 0.00 0.00 0.00 77 1015.1
20260506222813 48 51 2.0 6.0 0.00 0.00 0.00 76 1015.1
20260506221313 49 152 1.0 4.0 0.00 0.00 0.00 74 1015.0
20260506215813 49 28 1.0 3.0 0.00 0.00 0.00 73 1015.0
20260506214313 49 28 1.0 5.0 0.00 0.00 0.00 72 1014.9
20260506212813 49 5 0.0 2.0 0.00 0.00 0.00 71 1014.9
20260506211313 49 57 0.0 1.0 0.00 0.00 0.00 70 1014.9
20260506205813 49 33 0.0 2.0 0.00 0.00 0.00 69 1014.6
20260506204313 49 25 1.0 3.0 0.00 0.00 0.00 68 1014.7
20260506202813 50 85 0.0 2.0 0.00 0.00 0.00 66 1014.5
20260506201313 51 85 0.0 2.0 0.00 0.00 0.00 63 1014.5
20260506195813 52 107 1.0 4.0 0.00 0.00 0.00 62 1014.2
20260506194313 53 74 1.0 3.0 0.00 0.00 0.00 61 1014.1
20260506192813 54 25 2.0 3.0 0.00 0.00 0.00 59 1014.1
20260506191313 54 27 1.0 3.0 0.00 0.00 0.00 57 1014.0
20260506185813 55 32 2.0 5.0 0.00 0.00 0.00 56 1013.7
20260506184313 55 30 2.0 4.0 0.00 0.00 0.00 56 1013.8
20260506182813 56 337 2.0 5.0 0.00 0.00 0.00 54 1013.9
20260506181313 56 5 3.0 6.0 0.00 0.00 0.00 53 1013.8
20260506175813 57 263 2.0 8.0 0.00 0.00 0.00 52 1013.6
20260506174313 58 5 3.0 6.0 0.00 0.00 0.00 52 1013.5
20260506172813 58 20 1.0 5.0 0.00 0.00 0.00 50 1013.5
20260506171313 59 29 2.0 9.0 0.00 0.00 0.00 49 1013.5
20260506165813 60 42 2.0 8.0 0.00 0.00 0.00 48 1013.5
20260506164313 62 13 2.0 7.0 0.00 0.00 0.00 47 1013.3
20260506162813 62 36 2.0 4.0 0.00 0.00 0.00 46 1013.4
20260506161313 61 22 3.0 8.0 0.00 0.00 0.00 48 1013.5
20260506155813 61 24 3.0 7.0 0.00 0.00 0.00 46 1013.5
20260506154313 62 10 2.0 11.0 0.00 0.00 0.00 47 1013.5
20260506152813 62 317 2.0 5.0 0.00 0.00 0.00 49 1013.4
20260506151313 61 246 2.0 3.0 0.00 0.00 0.00 52 1013.6
20260506145813 60 115 1.0 3.0 0.00 0.00 0.00 51 1013.7
20260506144313 61 290 2.0 11.0 0.00 0.00 0.00 52 1013.8